Regional Weather Roundup
Issued by NWS

Home | Current Version | Previous Version | Text Only | Print | Product List | Glossary Off
Versions: 1 2 3 4 5 6 7 8 9 10 11 12 13 14 15 16 17 18 19 20 21 22 23 24 25 26 27 28 29 30 31 32 33 34 35 36 37 38 39 40 41 42 43 44 45 46 47 48 49 50

000
ASUS43 KLOT 261303
RWRIL

ILLINOIS REGIONAL WEATHER ROUNDUP
NATIONAL WEATHER SERVICE CHICAGO/ROMEOVILLE IL
800 AM CDT SAT MAY 26 2018

NOTE: "FAIR" INDICATES FEW OR NO CLOUDS BELOW 12,000 FEET WITH NO
SIGNIFICANT WEATHER AND/OR OBSTRUCTIONS TO VISIBILITY.

* THESE STATIONS ARE NOT UNDER NWS QUALITY CONTROL. THEY ALSO MAY NOT
  REPORT WEATHER SUCH AS PRECIPITATION OR FOG.

ILZ001-002-007-009-015-016-024-261400-
NORTHWEST ILLINOIS

CITY           SKY/WX    TMP DP  RH WIND       PRES   REMARKS
MOLINE         FAIR      69  62  78 E3        29.78R
STERLING*        N/A    N/A N/A N/A MISG        N/A
SAVANNA*       FAIR      68  64  85 CALM      29.79S
$$

ILZ003-004-008-010-011-017-018-261400-
NORTH CENTRAL ILLINOIS

CITY           SKY/WX    TMP DP  RH WIND       PRES   REMARKS
ROCKFORD       PTSUNNY   71  62  73 VRB3      29.80R
FREEPORT*      FAIR      68  62  82 CALM      29.81S
ROCHELLE*      FAIR      71  63  76 W6        29.80R
DE KALB*       FAIR      73  64  73 CALM      29.80R
PERU*          FAIR      73  65  78 CALM      29.79R
$$

ILZ005-006-012>014-019>023-261400-
NORTHEAST ILLINOIS

CITY           SKY/WX    TMP DP  RH WIND       PRES   REMARKS
CHICAGO-OHARE  PTSUNNY   72  61  68 W8        29.77R
CHICAGO-MIDWAY PTSUNNY   72  67  84 W7        29.78R
AURORA         FAIR      71  63  75 CALM      29.79R
LANSING*       FAIR      71  68  92 SW6       29.80S
JOLIET*        CLOUDY    72  65  80 CALM      29.79S
WAUKEGAN       FAIR      73  60  63 VRB6      29.76S
DUPAGE AIRPORT FAIR      70  63  78 W3        29.78S
KANKAKEE*      CLOUDY    71  69  94 SW3       29.82S
WHEELING       PTSUNNY   74  62  66 W6        29.79R
MORRIS*        FAIR      71  63  77 CALM      29.78R
ROMEOVILLE*    PTSUNNY   72  65  80 W3        29.79S
NORTHERLY ISL    N/A     73  62  68 SW9         N/A
$$

LMZ740>746-261400-
SOUTHERN LAKE MICHIGAN

STATION/POSITION SKY/WX   TEMP    WIND        PRES    VSBY  WAVE
                          AIR SEA DIR/SP/G                  HT/PER
                          (F)     (DEG/KT/KT) (MB)    (MI)  (FT/S)
SOUTHERN BUOY              46 39  170/  8/ 10 1008.0          1
WILMETTE HARBOR            63 56  270/  4/  6   N/A           0
HARRISON CRIB              73     270/ 10/ 11   N/A
BURNHAM HARBOR             74     250/  7/ 10   N/A
CALUMET HARBOR             71     230/  4/  9 1008.1R
BURNS HARBOR               70     200/  8/ 12 1009.1S
MICHIGAN CITY              70     180/ 10/ 12   N/A
MICHIGAN CITY 6N           65 60  210/  6/  8   N/A           1
ST. JOSEPH                 63 58  180/  6/  6 1008.8R         0
$$

ILZ025>027-034>036-040-047-049-050-058-095>099-261400-
WEST-CENTRAL ILLINOIS

CITY           SKY/WX    TMP DP  RH WIND       PRES   REMARKS
QUINCY         MOSUNNY   73  65  75 S6        29.83S
GALESBURG*     FAIR      71  61  70 SW6       29.80R
MACOMB*        MOSUNNY   65  63  91 SW8       29.82R
JACKSONVILLE*  SUNNY     69  65  88 SW12      29.82S
PITTSFIELD*    MOSUNNY   71  67  86 S3        29.85S
$$

ILZ028>032-037-038-041>044-048-051>054-059>061-261400-
CENTRAL ILLINOIS

CITY           SKY/WX    TMP DP  RH WIND       PRES   REMARKS
PONTIAC        FAIR      72  71  98 SE3       29.79S
BLOOMINGTON    PTSUNNY   70  68  93 SW9       29.82R
DECATUR        PTSUNNY   72  69  90 SW7       29.81F
PEORIA         FAIR      70  66  87 W5        29.79R
LACON*         FAIR      70  67  90 CALM      29.78R
LINCOLN*       FAIR      73  70  91 CALM      29.81R
SPRINGFIELD    FAIR      74  68  81 W6        29.81S
TAYLORVILLE    FAIR      72  71  96 S10       29.80F
$$

ILZ033-039-045-046-055>057-062-063-261400-
EAST-CENTRAL ILLINOIS

CITY           SKY/WX    TMP DP  RH WIND       PRES   REMARKS
CHAMPAIGN      PTSUNNY   71  70  96 SW7       29.82F
DANVILLE*      CLOUDY    70  70 100 SW6       29.81S FOG
RANTOUL*       CLOUDY    73  71  93 SW6       29.83R
MATTOON        FAIR      72  69  90 SW6       29.84S
PARIS*         CLOUDY    72  68  89 SW9       29.85S
$$

ILZ079-100>102-261400-
SOUTHWEST ILLINOIS

CITY           SKY/WX    TMP DP  RH WIND       PRES   REMARKS
BELLEVILLE     MOSUNNY   71  68  89 W5          N/A
CAHOKIA*       MOSUNNY   72  67  84 CALM      29.86S
SPARTA*        CLOUDY    72  71  97 W6        29.90R
$$

ILZ064>066-069>071-074>076-080>082-084>086-088>090-092>094-261400-
SOUTH-CENTRAL ILLINOIS

CITY           SKY/WX    TMP DP  RH WIND       PRES   REMARKS
CARBONDALE     FAIR      71  69  93 SW6       29.88R
CAIRO*         PTSUNNY   71  70  95 S3        29.89R
EFFINGHAM*     PTSUNNY   72  71  96 SW6       29.88F
MARION         CLOUDY    70  70 100 SW7       29.89R FOG
MT. VERNON     CLOUDY    71  70  96 SW6       29.88R FOG
CENTRALIA*     MOSUNNY   73  71  92 W6        29.87S
SALEM*         PTSUNNY   73  69  89 W6        29.87S
METROPOLIS*    FAIR      72  70  93 CALM      29.90R
$$

ILZ067-068-072-073-078-083-087-091-261400-
SOUTHEAST ILLINOIS

CITY           SKY/WX    TMP DP  RH WIND       PRES   REMARKS
LAWRENCEVILLE  CLOUDY    73  66  78 SW8       29.87R
FLORA*         FAIR      72  70  95 W6        29.88R FOG
FAIRFIELD*     CLOUDY    69  69 100 S3        29.87R FOG
HARRISBURG*    CLOUDY    71  70  98 W7        29.89R FOG
ROBINSON*      PTSUNNY   70  68  93 W9        29.87S
CARMI*         FAIR      73  70  88 S7        29.87S
$$

ABBREVIATIONS USED IN REMARKS
   TC - TEMPERATURE IN CELSIUS
  WCI - WIND CHILL INDEX
   HX - HEAT INDEX
  VSB - VISIBILITY
$$





USA.gov is the U.S. government's official web portal to all federal, state and local government web resources and services.